Location: La Pernelle
(49.6188°N, 1.2999°W)
Time: 14:39:11
(UTC+00:00)

SL-8 R/B - Pass Details

Date: 12 June 2021
Orbit: 656 x 667 km, 48.4° (Epoch: 29 July)

Event Time Altitude Azimuth Distance (km) Brightness Sun altitude
Rises 21:09:21 0° 261° (W) 2,990 7.5 -7.4°
Reaches altitude 10° 21:11:42 10° 260° (W) 2,076 6.7 -7.6°
Maximum altitude 21:16:29 78° 175° (S) 679 3.7 -8.1°
Drops below altitude 10° 21:21:16 10° 90° (E) 2,071 5.9 -8.6°
Sets 21:23:37 0° 89° (E) 2,982 6.7 -8.8°
